BRISAT

Last updated on Thu Nov 21 2024 00:02:43 GMT+0000 (Coordinated Universal Time)

1 41591U 16039A 24324.75341684 -.00000195 00000+0 00000+0 0 9996 2 41591 0.0168 299.6276 0002253 297.5207 243.8559 1.00270674 30851
UTC large
Height (km)
Speed (km/s)
/
Latitude / Longitude
Inclination (degrees)
Orbital Period (minutes)
Azimuth
Elevation
Range (km)
Doppler Factor

Next 0 passes for location: London (51.5072 / 0.1276)

Sorry there are no passes over London.